AT491 Weather Reports


Display with metric or nautical units.
time (UTC)temp
F
wind
direction
speed
MPH
gust
MPH
rain 1hr
in
rain 24hr
in
rain mn
in
humidity
%
barometer
mb
20260505153108 47 0 0.0 2.0 0.00 0.00 0.00 64 1012.7
20260505151603 46 115 0.0 2.0 0.00 0.00 0.00 65 1012.8
20260505124602 35 0 0.0 0.0 0.00 0.00 0.00 85 1012.5
20260505123110 35 0 0.0 0.0 0.00 0.00 0.00 85 1012.5
20260505121600 35 0 0.0 0.0 0.00 0.00 0.00 84 1012.5
20260505024601 59 286 3.0 7.0 0.00 0.00 0.00 18 1011.2
20260505023059 60 297 3.0 13.0 0.00 0.00 0.00 19 1011.1
20260505021557 60 308 3.0 12.0 0.00 0.00 0.00 19 1010.8
20260505014610 61 270 4.0 12.0 0.00 0.00 0.00 18 1010.0
20260505013059 62 293 4.0 15.0 0.00 0.00 0.00 19 1010.0
20260505011601 62 253 4.0 11.0 0.00 0.00 0.00 19 1009.5
20260505010104 63 323 2.0 11.0 0.00 0.00 0.00 19 1009.4
20260505004559 63 288 3.0 12.0 0.00 0.00 0.00 19 1009.6
20260505003106 64 339 2.0 10.0 0.00 0.00 0.00 20 1009.5
20260505001601 64 229 3.0 10.0 0.00 0.00 0.00 19 1009.6
20260504234558 65 336 3.0 13.0 0.00 0.00 0.00 20 1009.4
20260504233100 66 265 4.0 13.0 0.00 0.00 0.00 20 1009.5
20260504231559 67 0 2.0 18.0 0.00 0.00 0.00 20 1009.3
20260504230057 68 243 1.0 12.0 0.00 0.00 0.00 21 1009.3
20260504224558 68 0 3.0 13.0 0.00 0.00 0.00 22 1009.2
20260504223122 69 240 4.0 13.0 0.00 0.00 0.00 20 1009.4
20260504221603 69 288 4.0 12.0 0.00 0.00 0.00 21 1009.5
20260504214558 70 308 4.0 12.0 0.00 0.00 0.00 21 1010.1
20260504213105 69 265 3.0 12.0 0.00 0.00 0.00 21 1010.4
20260504211644 69 319 2.0 8.0 0.00 0.00 0.00 21 1010.6
20260504210055 67 290 3.0 11.0 0.00 0.00 0.00 21 1011.0
20260504204556 67 345 3.0 10.0 0.00 0.00 0.00 21 1011.5
20260504203107 67 0 2.0 11.0 0.00 0.00 0.00 22 1011.7
20260504201612 66 257 4.0 15.0 0.00 0.00 0.00 22 1011.8
20260504200055 66 304 7.0 17.0 0.00 0.00 0.00 23 1012.2
20260504194557 66 283 2.0 13.0 0.00 0.00 0.00 23 1012.3
20260504193105 65 320 5.0 12.0 0.00 0.00 0.00 25 1012.3
20260504191611 65 290 5.0 13.0 0.00 0.00 0.00 26 1012.2
20260504190107 65 293 5.0 13.0 0.00 0.00 0.00 28 1012.3
20260504184557 65 266 3.0 11.0 0.00 0.00 0.00 29 1012.5
20260504183055 64 298 5.0 18.0 0.00 0.00 0.00 28 1012.9
20260504181603 63 307 6.0 18.0 0.00 0.00 0.00 30 1012.9
20260504180059 63 293 4.0 20.0 0.00 0.00 0.00 32 1013.2
20260504174556 63 269 4.0 16.0 0.00 0.00 0.00 31 1013.3
20260504173059 62 360 3.0 13.0 0.00 0.00 0.00 32 1013.4
20260504171558 62 0 4.0 13.0 0.00 0.00 0.00 33 1013.6